Regional Weather Roundup
Issued by NWS

Home | Current Version | Previous Version | Text Only | Print | Product List | Glossary On
Versions: 1 2 3 4 5 6 7 8 9 10 11 12 13 14 15 16 17 18 19 20 21 22 23 24 25 26 27 28 29 30 31 32 33 34 35 36 37 38 39 40 41 42 43 44 45 46 47 48 49 50
000
ASUS43 KMPX 180701
RWRMN
WEATHER ROUNDUP FOR MINNESOTA
NATIONAL WEATHER SERVICE TWIN CITIES/CHANHASSEN MN
200 AM CDT FRI AUG 18 2017


NOTE: "FAIR" INDICATES FEW OR NO CLOUDS BELOW 12,000 FEET WITH NO
SIGNIFICANT WEATHER AND/OR OBSTRUCTIONS TO VISIBILITY. N/A MEANS
CURRENT SKY AND/OR WEATHER CONDITIONS ARE NOT AVAILABLE.

MNZ060>063-068>070-180800-
   Twin Cities Metro

CITY           SKY/WX    TMP DP  RH WIND       PRES   REMARKS
TWIN CITIES    CLEAR     63  59  87 W6        29.86R
ST PAUL        CLEAR     63  60  90 NW6       29.86R
CRYSTAL        CLEAR     61  56  83 W6        29.85R
BLAINE         CLEAR     63  61  94 W6        29.86R
LAKEVILLE      CLEAR     59  59 100 W5        29.87R
EDEN PRAIRIE   CLEAR     62  59  90 W5        29.85R
SOUTH ST PAUL  CLEAR     63  60  92 W7        29.85R
LAKE ELMO      FAIR      59  57  94 W6        29.87R
$$
MNZ001>005-007-008-013>017-022>024-027-028-180800-
   Northwest Minnesota

CITY           SKY/WX    TMP DP  RH WIND       PRES   REMARKS
BEMIDJI        CLEAR     53  53  99 CALM      29.85R
HALLOCK        CLEAR     52  50  93 CALM      29.82S
ROSEAU         CLEAR     55  52  88 CALM      29.82F
WARROAD        CLEAR     57  54  88 CALM      29.83S
CROOKSTON      CLEAR     61  55  82 CALM      29.84S
FOSSTON        CLEAR     54  52  94 S5        29.86R FOG
DETROIT LAKES  CLEAR     59  57  94 CALM      29.88S
MOORHEAD       PTCLDY    61  57  88 CALM      29.87R
PARK RAPIDS    CLEAR     56  54  93 W5        29.86R
MAHNOMEN       FAIR      56  56  97 S6        29.86R
$$
MNZ006-009>011-018-025>026-180800-
   North Central Minnesota

CITY           SKY/WX    TMP DP  RH WIND       PRES   REMARKS
BAUDETTE       CLEAR     56  55  97 W3        29.81F
FLAG ISLAND    CLEAR     64  55  72 CALM      29.80S
INTL FALLS     PTCLDY    49  48  97 CALM      29.81F
WASKISH        CLEAR     52  52 100 CALM      29.81F
BIG FORK       CLEAR     48  48 100 CALM      29.82S FOG
LONGVILLE        N/A     54  54 100 CALM      29.84R FOG
GRAND RAPIDS   CLEAR     56  55  97 CALM      29.84S
CRANE LAKE     FOG       54  52  94 CALM      29.83R VSB 1
ORR            CLEAR     54  52  94 CALM      29.79S FOG
COOK           FOG       52  52 100 CALM      29.82S VSB 1/4
WALKER         FOG       54  53  99 CALM      29.85R VSB 1/2
$$
MNZ012-019>021-037-180800-
   Northeast Minnesota

CITY           SKY/WX    TMP DP  RH WIND       PRES   REMARKS
DULUTH         MOCLDY    58  58 100 N7        29.78F
ELY            CLOUDY    59  57  94 NW3       29.79R
HIBBING        FOG       49  49 100 CALM      29.81S VSB 1/4
EVELETH        CLOUDY    58  55  90 CALM      29.81F
DULUTH HARBOR  CLEAR     63  59  88 NW7       29.79S
TWO HARBORS    CLOUDY    64  61  88 N3        29.75S
SILVER BAY     CLOUDY    63  59  88 CALM      29.74R
GRAND MARAIS     N/A     64  58  80 CALM      29.69S
$$
MNZ029>031-032-039>041-046>048-054>057-064-180800-
   West Central Minnesota

CITY           SKY/WX    TMP DP  RH WIND       PRES   REMARKS
FERGUS FALLS   MOCLDY    63  63 100 CALM      29.87S
WHEATON        MOCLDY    63  57  82 CALM      29.90S
ALEXANDRIA     CLOUDY    59  58  96 CALM      29.90R
ELBOW LAKE     CLOUDY    60  59  99 CALM      29.88F
WADENA         CLEAR     57  57 100 W3        29.87S
GLENWOOD       CLOUDY    61  61 100 W3        29.89S FOG
APPLETON       MOCLDY    63  59  88 SW5       29.88F
BENSON         MOCLDY    59  57  94 CALM      29.90S
ORTONVILLE     CLOUDY    63  57  82 MISG      29.89S
MADISON        CLOUDY    64  64 100 SW3       29.89F
WILLMAR        FAIR      61  59  94 CALM      29.90S FOG
$$
MNZ033>034-036-042>043-049>051-058-059-180800-
   Central Minnesota

CITY           SKY/WX    TMP DP  RH WIND       PRES   REMARKS
ST CLOUD       CLEAR     58  57  97 W3        29.87R
SAUK CENTRE    FAIR      56  55  99 CALM      29.89S FOG
PAYNESVILLE    CLEAR     55  55 100 W5        29.89S
AITKIN         FOG       48  48 100 CALM      29.82R VSB 1
PINE RIVER     CLEAR     52  52 100 CALM      29.89R
BRAINERD       CLEAR     57  56  96 CALM      29.86R
STAPLES        CLEAR     55  54  94 CALM      29.87R
LONG PRAIRIE   FAIR      54  54 100 CALM      29.89R FOG
LITTLE FALLS   FOG       52  52 100 CALM      29.87R VSB 1
LITCHFIELD     CLEAR     63  61  94 W3        29.89S
BUFFALO        CLEAR     60  58  92 CALM      29.88S
MAPLE LAKE     CLEAR     59  59  97 CALM      29.88S
HUTCHINSON     CLEAR     58  58  99 CALM      29.90S
$$
MNZ037-044-045-052-053-180800-
   East Central Minnesota

CITY           SKY/WX    TMP DP  RH WIND       PRES   REMARKS
PRINCETON      CLEAR     57  57 100 SW3       29.86R
MORA           CLEAR     55  55 100 W5        29.86R
RUSH CITY      MOCLDY    55  54  97 W6        29.84R FOG
MOOSE LAKE     CLEAR     55  54  94 NW3       29.79F
HINCKLEY       FAIR      55  55 100 CALM      29.82R
CLOQUET        CLEAR     57  54  88 NW3       29.79F
MCGREGOR       CLEAR     54  52  94 CALM      29.83R
$$
MNZ071>073-080-081-089-090-097-098-180800-
   Southwest Minnesota

CITY           SKY/WX    TMP DP  RH WIND       PRES   REMARKS
MONTEVIDEO     CLOUDY    63  61  94 W3        29.89F
GRANITE FALLS  MOCLDY    62  60  94 SW5       29.91F
CANBY          CLOUDY    66  59  77 CALM      29.91S
MARSHALL       CLOUDY    61  58  90 SW6       29.90F
REDWOOD FALLS  CLEAR     63  59  87 W15       29.91R
OLIVIA         CLOUDY    59  57  94 CALM      29.89R
PIPESTONE      DRIZZLE   64  61  88 SW6       29.94F
WINDOM         CLOUDY    59  57  94 W9        29.94R
WORTHINGTON    CLOUDY    61  58  90 NW5       29.95R
JACKSON        PTCLDY    57  55  94 CALM      29.93R
TRACY          CLOUDY    62  60  91 SW7       29.92F
SLAYTON        CLOUDY    60  54  80 W5        29.96R
$$
MNZ065>067-074>077-082>085-091>093-180800-
   South Central Minnesota

CITY           SKY/WX    TMP DP  RH WIND       PRES   REMARKS
MANKATO        CLEAR     60  60 100 W6        29.89R
NEW ULM        CLEAR     59  57  94 W5        29.89R
ST JAMES       CLEAR     59  57  94 W3        29.91R
FAIRMONT       CLEAR     61  59  93 W3        29.91R
GLENCOE        CLEAR     60  60 100 W3        29.87S
FARIBAULT      CLEAR     61  59  94 W3        29.87F
OWATONNA       CLEAR     57  55  94 CALM      29.88S
WASECA         CLEAR     55  55 100 CALM      29.89S FOG
ALBERT LEA     CLEAR     64  63  94 W3        29.89R
$$
MNZ078>079-086>088-094>096-180800-
   Southeast Minnesota

CITY           SKY/WX    TMP DP  RH WIND       PRES   REMARKS
ROCHESTER      CLEAR     59  58  96 W8        29.87R
RED WING       CLEAR     63  57  82 W5        29.83R
STANTON        CLEAR     61  58  90 W3        29.85R
DODGE CENTER   CLEAR     61  57  88 W6        29.87S
WINONA         CLOUDY    70  61  73 NW5       29.81F
AUSTIN         CLEAR     61  59  94 NW5       29.87F
PRESTON        CLEAR     61  58  90 NW8       29.86F
$$
ABBREVIATIONS USED IN REMARKS
   TC - TEMPERATURES IN CELSIUS
  WCI - WIND CHILL INDEX
   HX - HEAT INDEX
  VSB - VISIBILITY
$$




USA.gov is the U.S. government's official web portal to all federal, state and local government web resources and services.